CAPE
17 4 2 0 0 0 0 0 0 0 0 0 0 0 0 0 0 0 0 0 0 0 0 0 0 0 0 0 0 0 0 0 0 0 0 0 0 0 0 0 0 0 0 0 0
23 18 4 11 0 0 0 0 0 0 0 0 0 0 0 0 0 0 0 0 0 0 0 0 0 0 0 0 0 0 0 0 0 0 0 0 0 0 0 0 0 0 0 0 0
7 30 21 11 5 0 0 0 0 0 0 0 0 0 0 0 0 0 0 0 0 0 0 0 0 0 0 0 0 0 0 0 0 0 0 0 0 0 0 0 0 0 0 0 0
15 26 24 11 14 11 1 0 0 0 0 0 0 0 0 0 0 0 0 0 0 0 0 0 0 0 0 0 0 0 0 0 0 0 0 0 0 0 0 0 0 0 0 0 0
12 5 26 28 12 19 8 1 0 0 0 0 0 0 0 0 0 0 0 0 0 0 0 0 0 0 0 0 0 0 0 0 0 0 0 0 0 0 0 0 0 0 0 0 0
22 0 13 21 17 14 11 3 0 0 0 0 0 0 0 0 0 0 0 0 0 0 0 0 0 0 0 0 0 0 0 0 0 0 0 0 0 0 0 0 0 0 0 0 0
9 19 10 12 19 12 14 9 2 0 0 0 0 0 0 0 0 0 0 0 0 0 0 0 0 0 0 0 0 0 0 0 0 0 0 0 0 0 0 0 0 0 0 0 0
31 38 17 10 15 20 11 41 13 2 0 0 0 0 0 0 0 0 0 0 0 0 0 0 0 0 0 0 0 0 0 0 0 0 0 0 0 0 0 0 0 0 0 0 0
79 43 22 2 14 54 12 37 31 26 14 7 0 1 0 0 0 0 0 0 0 0 0 0 0 0 0 0 0 0 0 0 0 0 0 0 0 0 0 0 0 0 0 0 0
46 60 34 46 14 91 52 21 14 32 31 36 23 17 0 0 0 0 0 0 2 0 0 0 0 0 0 0 0 0 0 0 0 0 0 0 0 0 0 0 0 0 0 0 0
47 48 58 30 57 122 34 27 10 2 28 0 0 0 0 0 0 0 0 0 0 3 0 0 0 0 0 0 0 0 0 0 0 0 0 0 0 0 0 0 0 0 0 0 0
12 19 59 50 92 64 11 1 0 0 0 0 0 7 0 0 0 0 0 0 0 0 0 0 0 0 0 0 0 0 0 0 0 0 0 0 0 0 0 0 0 0 0 0 0
1 39 19 54 88 45 0 0 0 0 0 0 0 9 0 0 0 0 0 0 0 0 0 0 0 0 0 0 0 0 0 0 0 0 0 0 0 0 0 0 0 0 0 0 0
0 7 50 32 44 28 8 1 6 0 0 0 7 7 0 0 0 0 0 0 0 0 0 0 0 0 0 0 0 0 0 0 0 0 0 0 0 0 0 0 0 0 0 0 0
0 4 49 71 28 26 1 1 0 0 0 0 3 4 0 0 0 0 0 3 0 0 0 0 0 0 0 0 0 0 0 0 0 0 0 0 0 0 0 0 0 0 0 0 0
1 0 18 52 15 12 0 0 0 0 0 0 6 15 3 10 0 0 0 0 0 0 0 0 1 0 0 0 0 0 0 0 0 0 0 0 0 0 0 0 0 0 0 0 0
6 0 27 72 25 0 0 0 0 0 0 0 5 20 1 10 11 1 0 1 0 2 1 6 7 6 0 1 4 12 1 0 0 0 0 0 0 0 0 0 0 0 0 0 0
4 0 43 57 1 0 0 0 0 0 0 0 0 2 5 6 13 5 0 1 0 2 0 1 2 2 0 0 0 0 0 0 0 0 0 0 0 0 0 0 0 0 0 0 0
2 15 38 1 4 0 0 0 0 0 0 0 3 8 1 21 12 17 2 2 0 0 0 0 0 0 0 0 0 2 8 0 0 0 0 0 0 0 0 0 0 0 0 0 0
8 39 13 1 0 0 0 0 0 0 0 0 0 0 0 2 0 2 3 0 0 2 1 3 0 0 0 2 1 3 0 1 0 0 0 0 0 0 0 0 0 0 0 0 0
7 8 7 1 0 2 0 0 0 0 0 0 0 0 0 0 0 2 0 0 0 0 24 6 0 1 0 1 0 0 0 0 0 0 0 0 0 0 0 0 0 0 0 0 0
0 0 10 9 1 0 0 0 0 0 0 0 0 0 0 0 0 0 0 0 0 0 23 2 1 0 0 0 5 9 0 1 0 0 0 0 0 0 0 0 0 0 0 0 0
0 1 1 18 0 0 1 0 0 0 0 0 0 0 0 0 0 0 0 0 0 4 12 13 0 0 2 0 0 0 0 0 0 0 0 0 0 0 0 0 0 0 0 0 0
0 0 0 1 1 0 0 0 0 0 0 0 0 0 0 0 0 0 0 0 0 4 12 17 2 0 0 0 0 0 0 0 0 0 0 0 0 0 0 0 0 0 0 0 0
0 0 0 0 0 0 0 0 0 0 0 0 0 0 0 0 0 0 0 0 0 8 11 3 0 0 0 0 0 0 0 0 6 0 1 0 0 0 0 0 0 0 0 0 0
0 0 0 0 1 0 0 0 0 0 0 0 0 0 0 0 0 0 0 0 0 6 20 0 0 0 1 1 1 0 0 0 0 0 0 0 0 0 0 0 0 0 0 0 0
2 0 0 0 0 0 0 0 0 0 0 0 0 0 0 0 0 1 7 2 3 0 19 26 2 0 0 0 0 0 0 0 0 0 0 0 0 0 0 0 0 0 0 0 0
CIN
-31 -20 -4 0 0 0 0 0 0 0 0 0 0 0 0 0 0 0 0 0 0 0 0 0 0 0 0 0 0 0 0 0 0 0 0 0 0 0 0 0 0 0 0 0 0
-39 -31 -25 -16 0 0 0 0 0 0 0 0 0 0 0 0 0 0 0 0 0 0 0 0 0 0 0 0 0 0 0 0 0 0 0 0 0 0 0 0 0 0 0 0 0
-33 -27 -26 -29 -35 0 0 0 0 0 0 0 0 0 0 0 0 0 0 0 0 0 0 0 0 0 0 0 0 0 0 0 0 0 0 0 0 0 0 0 0 0 0 0 0
-25 -28 -24 -31 -23 -28 -60 0 0 0 0 0 0 0 0 0 0 0 0 0 0 0 0 0 0 0 0 0 0 0 0 0 0 0 0 0 0 0 0 0 0 0 0 0 0
-14 -35 -29 -29 -30 -26 -37 -56 0 0 0 0 0 0 0 0 0 0 0 0 0 0 0 0 0 0 0 0 0 0 0 0 0 0 0 0 0 0 0 0 0 0 0 0 0
-16 0 -37 -33 -32 -27 -33 -46 0 0 0 0 0 0 0 0 0 0 0 0 0 0 0 0 0 0 0 0 0 0 0 0 0 0 0 0 0 0 0 0 0 0 0 0 0
-23 -21 -35 -38 -34 -29 -28 -46 -40 -20 0 0 0 0 0 0 0 0 0 0 0 0 0 0 0 0 0 0 0 0 0 0 0 0 0 0 0 0 0 0 0 0 0 0 0
-15 -14 -72 -49 -44 -32 -33 -21 -28 -29 -2 0 0 -2 0 0 0 0 0 0 0 0 0 0 0 0 0 0 0 0 0 0 0 0 0 0 0 0 0 0 0 0 0 0 0
-1 -8 -39 -58 -106 -52 -27 -18 -20 -13 -17 -25 0 -4 0 0 0 0 0 0 0 0 0 0 0 0 0 0 0 0 0 0 0 0 0 0 0 0 0 0 0 0 0 0 0
-2 -5 -9 -40 -75 -25 -28 -19 -19 -7 -5 -9 -11 -4 0 0 0 0 0 0 -1 0 0 0 0 0 0 0 0 0 0 0 0 0 0 0 0 0 0 0 0 0 0 0 0
0 -3 -3 -22 -23 -19 -23 -15 -3 -7 0 0 -3 0 0 0 0 0 0 0 0 -1 0 0 0 0 0 0 0 0 0 0 0 0 0 0 0 0 0 0 0 0 0 0 0
-10 0 0 -6 -7 -22 -29 -35 0 0 0 0 -2 -6 0 0 0 0 0 0 0 0 0 0 0 0 0 0 0 0 0 0 0 0 0 0 0 0 0 0 0 0 0 0 0
-15 0 -1 -2 -3 -12 0 0 0 0 0 0 0 -5 0 0 0 0 0 0 0 0 0 0 0 0 0 0 0 0 0 0 0 0 0 0 0 0 0 0 0 0 0 0 0
0 -5 0 -2 -1 -4 -10 -29 -24 -14 0 0 0 -5 0 0 0 0 0 0 0 0 0 0 0 0 0 0 0 0 0 0 0 0 0 0 0 0 0 0 0 0 0 0 0
0 -13 0 0 -5 -1 -3 -31 0 0 0 0 0 -9 0 0 0 0 0 -11 0 0 0 0 0 0 0 0 0 0 0 0 0 0 0 0 0 0 0 0 0 0 0 0 0
-1 0 -6 0 -5 -4 0 0 0 0 0 0 -2 0 -1 -2 -1 0 0 0 0 0 0 0 -7 0 0 0 0 0 0 0 0 0 0 0 0 0 0 0 0 0 0 0 0
0 0 -6 0 0 0 0 0 0 0 0 0 0 0 0 0 -2 -5 0 -1 0 0 0 -2 -4 -15 0 -3 -8 -2 -3 0 0 0 0 0 0 0 0 0 0 0 0 0 0
0 0 0 0 -3 0 0 0 0 0 0 0 -1 -1 0 0 -1 -1 0 0 -4 -4 0 -3 -4 -3 -2 0 0 0 0 0 0 0 0 0 0 0 0 0 0 0 0 0 0
0 0 0 -2 -27 -2 -1 0 0 0 0 0 0 0 0 0 -1 0 0 0 0 0 0 0 0 0 0 0 0 -2 -1 0 0 0 0 0 0 0 0 0 0 0 0 0 0
0 0 0 0 -14 0 0 0 0 0 0 0 0 -1 0 -1 0 -1 0 -1 0 -18 -17 -18 -2 0 0 -7 -1 -8 0 -2 -1 0 0 0 0 0 0 0 0 0 0 0 0
-2 0 -2 -1 0 0 0 0 0 0 0 0 0 0 0 0 0 0 0 0 0 0 -6 -30 0 0 0 -1 0 0 0 0 0 0 0 0 0 0 0 0 0 0 0 0 0
0 0 -5 -5 0 0 0 0 0 0 0 0 0 0 0 0 0 0 0 0 0 0 -3 -7 -20 0 0 0 -40 -18 0 -17 0 0 0 0 0 0 0 0 0 0 0 0 0
0 0 0 -1 0 0 0 0 0 0 0 0 0 0 0 0 0 0 0 0 0 -13 -4 -11 -1 0 -5 -2 0 -1 0 0 -5 0 0 0 0 0 0 0 0 0 0 0 0
0 0 0 -1 0 0 0 0 0 0 0 0 0 0 0 0 0 0 0 0 0 -17 -2 -3 -12 0 0 0 0 0 0 0 -8 -1 0 0 0 0 0 0 0 0 0 0 0
0 0 0 0 0 0 0 0 0 0 0 0 0 0 0 0 0 0 0 0 0 -32 -3 -3 0 0 0 0 0 0 0 0 -7 -1 -4 0 0 0 0 0 0 0 0 0 0
0 0 0 0 0 0 0 0 0 0 0 0 0 0 0 0 0 0 0 0 -1 -67 -8 0 0 -10 -9 -19 -33 0 0 0 0 0 0 0 0 0 0 0 0 0 0 0 0
0 -1 0 0 0 0 0 0 0 0 0 0 0 0 0 0 0 -64 -76 -80 -53 -3 -41 -17 -22 0 0 0 0 0 0 0 0 0 0 0 0 0 0 0 0 0 0 0 0
Wind_Speed
28 27 27 29 28 27 26 26 26 26 26 26 26 26 28 28 29 27 29 25 25 27 27 28 24 25 24 23 22 21 20 23 24 21 18 11 16 17 14 12 15 15 11 8 9
31 28 25 25 26 26 25 25 25 26 27 27 26 26 26 28 29 32 25 25 26 26 25 25 26 26 25 25 23 22 22 22 21 22 12 13 14 15 16 13 15 12 9 7 7
32 29 27 25 24 24 24 23 23 23 25 26 26 26 26 25 31 30 23 25 25 25 24 24 25 25 27 26 24 23 24 23 20 16 14 12 14 16 15 17 16 10 7 8 9
33 30 29 25 23 23 22 23 22 22 22 23 24 24 23 23 35 24 22 25 25 23 22 24 25 27 28 28 26 26 24 21 20 18 15 15 15 15 16 14 13 9 8 11 15
35 32 29 27 25 23 22 21 20 19 20 20 21 22 21 26 28 20 21 22 23 21 23 23 26 27 29 28 26 26 25 21 19 18 18 18 18 19 20 19 18 15 15 17 20
31 34 33 28 27 23 23 20 19 17 17 18 19 19 22 28 19 20 22 21 19 20 21 22 23 25 29 28 26 24 28 22 23 22 22 24 24 23 23 23 26 22 18 20 20
33 29 33 32 28 25 21 19 19 16 15 15 16 18 22 23 18 19 19 19 19 19 19 19 20 22 25 25 24 25 25 26 23 23 25 21 30 26 25 24 23 23 22 22 22
33 31 28 29 31 26 23 20 17 15 15 15 16 19 23 20 20 19 17 18 19 17 17 16 18 20 22 21 22 25 25 28 26 22 22 20 31 24 30 21 22 23 22 25 23
36 33 31 28 30 27 23 20 17 15 14 15 18 21 24 18 19 19 17 18 17 17 17 16 16 21 21 23 26 24 29 29 27 20 20 21 26 23 20 18 21 22 21 23 23
39 33 29 29 27 23 19 18 15 14 15 15 20 23 23 19 17 16 17 17 16 15 16 18 21 24 24 26 33 30 31 28 27 24 24 25 29 27 28 26 23 23 23 22 24
38 39 31 27 25 23 20 15 18 21 22 24 24 25 18 15 15 16 16 16 17 18 22 20 26 30 28 26 21 26 28 31 24 23 25 31 35 34 35 32 27 25 22 20 21
35 40 34 27 26 25 23 27 23 21 28 26 25 24 19 17 18 17 15 17 19 23 20 25 34 27 26 28 32 29 29 27 24 21 26 32 40 38 36 33 29 26 24 23 19
40 41 39 27 27 26 28 29 19 15 25 30 27 27 26 24 24 20 16 19 22 21 24 26 25 25 26 27 30 31 32 30 29 27 28 33 38 31 27 25 25 25 25 21 14
47 41 45 34 29 30 32 25 19 19 31 31 30 30 25 23 28 19 17 18 22 23 22 28 26 21 24 27 27 33 29 30 32 31 35 25 40 30 26 23 19 17 14 12 10
45 44 49 38 28 34 26 19 15 14 39 25 26 18 21 24 18 23 18 21 24 20 21 26 24 26 26 24 23 29 25 26 28 33 35 34 35 33 26 25 21 16 12 12 13
51 47 47 45 34 30 22 18 14 31 44 26 19 22 21 24 23 18 22 21 19 23 23 23 20 21 23 24 24 21 21 22 25 28 40 35 32 34 28 24 21 15 13 13 14
49 50 54 47 38 30 27 21 31 42 25 29 26 22 21 26 23 23 24 27 26 28 29 24 23 20 20 22 22 22 20 27 32 32 36 29 30 33 22 19 18 13 14 13 16
49 50 55 43 31 33 29 30 39 32 31 22 21 19 25 19 26 25 26 30 30 28 26 30 32 23 19 22 24 25 25 29 35 35 34 27 34 30 25 23 18 14 14 16 17
48 48 43 39 36 31 33 39 33 30 25 23 17 23 25 22 21 22 26 30 31 29 31 32 35 22 19 21 20 23 29 24 28 28 34 31 31 29 26 24 20 16 15 17 16
48 50 42 37 38 34 35 36 27 23 20 18 28 25 28 23 22 21 23 28 29 28 25 26 30 26 23 21 22 22 21 29 28 35 40 37 36 35 33 28 23 20 18 18 17
53 44 31 36 36 43 40 31 29 22 19 23 22 25 25 23 21 22 19 23 23 26 24 24 26 27 23 29 28 25 27 26 26 31 36 40 35 23 24 21 20 20 18 17 16
40 45 36 37 41 40 37 29 28 24 21 19 19 21 22 20 21 20 21 22 16 17 27 25 25 29 28 24 25 30 29 28 34 35 34 36 38 21 25 22 19 17 17 17 17
40 34 33 41 45 37 32 32 29 28 23 20 21 18 16 19 24 20 20 15 12 14 19 22 24 29 30 30 28 32 32 33 35 34 39 39 35 23 16 19 19 22 23 22 21
33 35 32 38 33 35 34 32 29 24 23 21 21 18 16 16 18 20 17 16 14 14 12 15 24 29 34 30 24 30 29 31 33 39 39 38 36 34 34 32 30 33 31 29 29
27 30 30 34 35 34 31 32 30 27 24 19 20 19 18 19 17 18 16 14 14 12 12 12 23 23 23 22 22 24 26 26 30 32 37 35 38 34 36 40 42 40 40 40 37
23 30 25 27 26 30 30 32 32 29 25 26 21 19 18 19 20 18 16 17 18 15 14 14 21 18 25 22 25 30 27 25 26 28 34 36 41 35 38 40 43 44 45 45 43
16 17 24 27 27 30 30 29 29 24 25 24 20 21 20 18 14 14 15 13 14 18 18 17 20 23 32 28 30 39 33 30 32 33 35 42 43 40 42 42 42 43 42 42 41
Wind_Direction
255 256 255 255 256 258 261 263 264 267 271 275 278 282 282 286 287 286 279 286 289 293 295 292 297 298 293 282 285 286 284 280 278 271 275 273 268 273 282 285 285 287 313 11 38
252 253 254 254 255 257 259 262 265 267 269 273 277 280 284 286 282 276 286 290 290 292 290 289 284 290 279 278 280 280 280 280 285 285 274 270 273 270 276 283 292 306 329 356 16
251 250 251 252 254 255 258 261 265 269 270 273 277 279 282 286 276 274 288 291 291 289 287 288 286 284 275 275 277 278 277 281 285 294 276 270 279 281 277 280 291 306 320 332 339
250 249 249 250 251 254 256 259 262 266 272 274 276 279 282 280 265 280 290 293 292 289 283 281 280 275 272 269 273 275 278 284 280 284 277 273 279 282 280 291 308 313 317 314 315
248 247 247 247 249 250 253 256 260 264 268 273 276 277 276 270 269 289 294 300 295 288 277 274 272 272 268 270 272 273 278 280 278 278 279 280 280 279 279 282 296 301 302 304 309
249 245 245 246 246 247 249 254 258 262 268 272 276 277 274 267 284 289 289 294 303 292 279 274 275 275 271 270 268 276 269 277 273 274 277 275 277 282 280 279 279 289 300 304 309
246 245 242 243 244 245 248 250 253 260 265 270 276 277 274 271 286 293 288 290 293 295 286 281 284 274 273 269 273 272 272 273 271 271 274 281 273 274 277 282 286 289 295 301 306
245 242 239 239 240 242 244 246 249 254 259 268 274 277 274 280 280 287 287 285 290 296 296 295 287 277 274 274 275 269 272 268 272 266 275 277 272 283 279 275 280 288 295 299 304
244 241 240 239 236 238 238 239 243 251 259 265 273 274 275 281 277 276 282 281 286 287 291 294 289 272 273 265 267 267 266 265 271 264 272 274 278 284 292 286 284 288 294 298 303
243 241 235 234 230 225 222 230 241 252 259 268 276 270 270 275 278 276 277 282 284 284 279 273 275 265 264 261 260 263 264 269 265 267 268 273 273 277 281 287 287 291 295 298 302
242 237 234 227 217 208 206 214 237 254 252 257 267 269 271 274 285 279 272 275 278 273 270 270 265 260 261 262 265 270 269 266 270 272 273 273 274 277 278 282 285 289 295 301 305
249 234 232 221 207 200 210 229 234 259 253 259 267 266 270 273 278 273 269 269 267 265 269 266 262 267 267 264 262 268 267 267 274 273 278 279 274 280 280 281 283 287 292 296 304
241 234 230 218 204 201 216 230 235 259 265 256 258 261 261 264 266 263 259 267 263 262 260 263 273 263 265 265 261 262 262 265 271 278 281 283 280 284 289 287 286 287 293 300 294
233 237 227 224 211 211 223 231 232 259 258 262 253 262 258 265 263 262 250 263 264 259 261 267 270 266 263 264 265 263 269 267 270 274 271 286 276 282 288 293 297 298 304 314 322
233 233 224 220 218 210 214 222 218 253 251 261 253 266 248 250 257 252 246 263 259 262 265 266 264 262 258 264 265 269 274 267 270 271 275 275 278 282 285 286 290 297 304 314 322
229 229 226 224 228 208 197 199 220 243 248 254 255 242 239 247 254 252 248 263 269 263 265 268 276 263 263 264 264 274 272 273 274 275 270 271 272 283 284 287 294 295 305 314 325
231 227 222 219 218 189 183 208 234 241 249 249 249 242 237 245 248 247 242 245 251 253 253 264 266 268 268 263 262 260 263 269 269 269 270 279 272 279 291 301 303 297 305 312 318
230 230 220 215 196 181 195 219 237 237 237 254 245 238 242 241 250 246 242 244 250 259 248 251 259 257 262 261 263 254 256 266 267 268 273 279 277 287 286 302 306 302 304 310 314
225 223 210 206 190 189 201 222 235 233 234 236 236 235 250 243 259 246 246 247 245 250 255 254 257 265 264 259 259 259 255 273 275 278 277 278 284 292 292 300 306 305 307 309 314
216 216 211 187 188 191 212 228 235 228 216 218 245 245 243 243 254 246 245 252 252 246 261 262 259 261 260 260 263 268 262 264 270 271 273 279 282 283 293 297 297 299 306 311 315
209 210 205 192 196 201 217 228 224 216 208 242 242 245 247 243 252 250 253 265 246 242 253 261 262 259 257 256 252 261 264 269 274 275 278 280 284 298 308 311 302 304 312 317 318
214 214 208 184 201 216 218 217 218 213 227 250 247 251 242 235 248 253 260 265 253 242 241 255 263 259 257 272 264 260 266 263 269 274 278 281 281 291 302 311 316 320 323 322 319
206 208 209 201 215 212 213 219 221 214 228 243 245 251 245 243 254 261 258 269 275 245 242 246 261 260 262 267 267 262 261 266 272 279 275 277 286 305 307 312 317 314 317 317 317
204 206 209 213 223 212 206 213 215 222 232 245 244 243 238 236 265 251 258 269 274 259 259 253 262 260 260 271 268 263 264 264 266 270 274 273 281 282 291 301 304 306 311 309 307
213 212 213 210 212 208 212 212 206 218 234 238 241 231 232 244 256 253 258 265 278 268 255 264 267 258 272 275 277 276 272 268 267 272 274 281 282 287 292 294 297 301 302 301 301
215 212 212 207 202 201 213 211 207 221 224 233 231 235 242 245 255 249 257 263 265 268 253 273 271 274 270 276 278 275 276 278 279 280 282 284 285 293 294 297 297 298 299 299 300
225 222 212 215 212 212 223 213 215 210 238 233 233 239 247 256 261 266 269 265 266 263 258 262 270 271 271 280 280 275 272 274 278 281 285 284 290 296 295 296 299 300 300 301 301